Location: Kuppenheim
(48.8299°N, 8.2568°E)
Time: 14:44:52
(UTC+00:00)

Cosmos 1980 Rocket - Pass Details

Date: 20 June 2021
Orbit: 830 x 849 km, 71.0° (Epoch: 30 July)

Event Time Altitude Azimuth Distance (km) Brightness Sun altitude
Rises 02:36:39 0° 335° (NNW) 3,386 5.7 -6.5°
Reaches altitude 10° 02:39:18 10° 344° (NNW) 2,448 5.1 -6.2°
Maximum altitude 02:44:27 36° 50° (NE) 1,305 4.1 -5.6°
Drops below altitude 10° 02:49:33 10° 116° (ESE) 2,438 4.9 -5.0°
Sets 02:52:11 0° 125° (SE) 3,370 5.5 -4.7°
